GW0766 Weather Reports


Display with metric or nautical units.
time (UTC)temp
F
wind
direction
speed
MPH
gust
MPH
rain 1hr
in
rain 24hr
in
rain mn
in
humidity
%
barometer
mb
20260506061547 61 263 0.0 0.0 0.00 0.00 0.00 86 991.7
20260506051115 60 307 0.0 1.0 0.00 0.00 0.00 86 990.9
20260506035913 56 302 0.0 2.0 0.00 0.14 0.02 87 1010.5
20260506031630 59 294 1.0 3.0 0.00 0.00 0.00 78 990.9
20260506015916 57 88 1.0 3.0 0.02 0.17 0.02 87 1011.2
20260506011537 60 293 2.0 7.0 0.00 0.00 0.00 88 991.4
20260506005916 60 111 2.0 6.0 0.00 0.15 0.00 73 1011.0
20260506001045 60 327 1.0 4.0 0.00 0.00 0.00 88 991.9
20260505221239 60 313 0.0 1.0 0.00 0.00 0.00 90 992.4
20260505215953 61 146 0.0 3.0 0.00 0.15 0.00 70 1012.2
20260505211027 60 336 0.0 0.0 0.00 0.00 0.00 90 992.9
20260505195953 60 13 0.0 0.0 0.00 0.00 0.00 90 993.1
20260505195933 61 139 0.0 1.0 0.00 0.15 0.15 77 1012.6
20260505185932 62 155 1.0 3.0 0.00 0.15 0.15 74 1012.3
20260505181645 61 19 0.0 0.0 0.00 0.00 0.00 88 992.6
20260505175919 64 187 2.0 5.0 0.00 0.15 0.15 69 1012.0
20260505165913 66 207 5.0 8.0 0.00 0.15 0.15 67 1012.1
20260505161008 64 138 2.0 5.0 0.00 0.00 0.00 83 992.4
20260505121256 68 134 2.0 8.0 0.00 0.00 0.00 71 993.2
20260505101600 68 82 3.0 8.0 0.00 0.00 0.00 71 993.6
20260505091121 69 73 2.0 5.0 0.00 0.00 0.00 66 993.7
20260505085927 60 169 0.0 4.0 0.00 0.15 0.15 82 1013.5
20260505075908 59 161 0.0 3.0 0.00 0.15 0.15 85 1013.7
20260505071238 67 89 1.0 4.0 0.00 0.00 0.00 72 993.6